STARLINK-11254, 60731

Orbit data source: Space-Track

STARLINK-11254, 60731 is a payload satellite owned by SpaceX/Seattle (US) in LEO that was launched on Wed, 28 Aug 2024 UTC via an FALCON 9 launch vehicle from the Air Force Eastern Test Range (AFETR). Payload-class satellites include a variety of spacecraft equipped with specific instruments for various scientific and technological missions. These include communications satellites like Starlink; space stations such as the ISS; scientific satellites like the Hubble; Earth observation satellites from companies like Planet Labs, Umbra, and HawkEye 360; GPS; miniature CubeSats for education and research; and military/defense satellites.

Loading next visibility...
Identifier
60731, 2024-152M
Orbit
LEO
Last TLE update
10 hours ago
Origin
Manufacturer
SpaceX/Seattle
Mission
Operational Commercial Communications
Bus & Motor
STARLINK V2M, Unknown motor
Mass
730 kg wet, ~700 kg dry
Launch date (UTC)
2024-08-28 (10 months ago)
Launch vehicle
FALCON 9
Launch site
Air Force Eastern Test Range (AFETR)
Object type
Payload
Rocket body
Debris
Shape & HBR
Box + 2 Pan, 29 m
Radar Cross Section
36.964 m², Large (>1 m²)

Expand to show TLE details & history

TLE from 10 hours ago
0 STARLINK-11254
1 60731U 24152M   25182.66956546 -.00000221  00000-0  30285-5 0  9995
2 60731  53.1588 273.3910 0000755  91.4414 268.6691 15.69714161 49422
Epoch: 2025-07-01T16:04Z
TLE epoch observation values (Epoch: 2025-07-01T16:04:10.455Z)
Latitude
0.00001°
Longitude
112.38575°
Altitude
360.642 km
Speed
7.694 km/s
True Right ascension
18h 13m 33s
True Declination
0° 00' 00"
Sunlit
Object was in full shadow at epoch
Visualization orbit readout
Latitude
-45.27378°
Longitude
-20.92995°
Altitude
375.48 km
Speed
7.684 km/s
Apparent Right ascension
05h 33m 52s
Apparent Declination
-58° 12' 19"
Sunlit
Object is in daylight
Visualization observer readout
Local Sidereal Time
13:56:59
Azimuth
223.26° SW
Elevation
-51.41°
Doppler factor
1
Orbital elements
Apogee altitude
360.484 km
Perigee altitude
359.467 km
Semi-major axis
6,738.113 km
Eccentricity
0.00008
Inclination
53.1588°
RAAN
273.391°
Arg. of periapsis
91.4414°
True anomaly
Unknown
Mean anomaly
268.6691°
Eccentric anomaly
Unknown
Mean motion
3.92406 °/min
Orbital period
91.74 mins
BSTAR
0.0000030285
Loading maneuver chart data...
Loading SW <> Apogee altitude chart data...
Loading historical data...
Loading historical data...
Loading historical data...
Loading historical data...
Loading historical data...
Loading historical data...
Loading historical data...

STARLINK-11254 Visibility forecast

Observer location: undefined°, undefined°

Span
Click to sort rows by Start time (UTC) header in descending order
Start Az.
Max El. time (UTC)
Max El. Az.
Max El.
End time (UTC)
End Az.
4 mins2025-07-02 09:04:56.051Z245.388° WSW2025-07-02 09:06:56.051Z341.575° N40.637°2025-07-02 09:08:56.051Z40.639° NE
4 mins2025-07-02 15:29:56.051Z314.85° NW2025-07-02 15:31:56.051Z110.686° ESE40.966°2025-07-02 15:33:56.051Z126.589° SE
|